Back to catalog

STARLINK-30822

AliveCommunicationsVLEO
NORAD 58193·PAYLOAD·🇺🇸 United States

Launched Oct 30, 2023 from Cape Canaveral Space Force Station

Loading…

Next Passes (next 24 hours)

TLE

FreshSource: CelesTrak SupGP

Epoch: Sep 14, 2026, 21:11 UTC

1 58193C 23167U   26257.88312500 -.00004618  00000+0 -15551-3 0  2571
2 58193  43.0014 154.8228 0003998 233.1640  34.6571 15.29942087    12

Track STARLINK-30822 in real time with AllMySat

Download on the App Store